#timestamp,LO_Frequency,Hit,StdDev 
1673928015.2,286047003.1,N
1673928035.1,286047005.8,Y
1673928036.0,286047005.8,P
1673928055.8,286047003.7,N
1673928075.7,286047005.9,N
1673928095.5,286046999.7,N
1673928115.3,286047000.6,N
1673928135.2,286047001.0,N
1673928155.0,286047000.1,N
1673928155.9,286047000.1,N
1673928175.8,286046999.3,N
1673928195.6,286047000.8,N
1673928215.4,286047001.8,N
1673928235.3,286047001.7,N
1673928255.1,286047001.8,N
1673928275.8,286047002.6,N
1673928295.7,286046998.6,N
1673928315.5,286047001.2,N
1673928335.4,286046998.1,N
1673928355.2,286046998.9,N
1673928375.0,286046998.6,N
1673928375.9,286046998.6,N
1673928395.8,286046998.7,N
1673928415.6,286046996.6,N
1673928435.5,286047001.5,N
1673928455.3,286047002.1,N
1673928475.1,286047000.2,N
1673928495.9,286046999.0,N
1673928515.7,286047002.4,N
1673928535.5,286047002.7,N
1673928555.4,286047000.1,N
1673928575.2,286046998.1,N
1673928595.1,286047000.9,N
1673928596.0,286047000.9,N
1673928615.8,286047000.6,N
1673928635.6,286047000.1,N
1673928655.5,286047000.3,N
1673928675.3,286047001.1,N
1673928695.1,286046999.0,N
1673928715.9,286046998.7,N
1673928735.7,286046999.5,N
1673928755.6,286046995.3,Y
1673928775.4,286046997.5,P
1673928795.2,286046993.4,P
1673928815.1,286046995.3,N
1673928816.0,286046995.3,N
1673928835.8,286046998.4,N
1673928855.7,286047002.0,N
1673928875.5,286047002.7,N
1673928895.3,286047000.3,N
1673928915.2,286047002.6,N
1673928935.9,286047002.3,N
1673928955.7,286047000.4,N
1673928975.6,286047000.6,N
1673928995.4,286047000.2,N
1673929015.2,286046998.5,N
1673929035.1,286046997.6,N
1673929036.0,286046997.6,N
1673929055.8,286047000.6,N
1673929075.7,286047004.3,N
1673929095.5,286047004.3,N
1673929115.3,286046999.8,N
1673929135.2,286047001.1,N
1673929155.0,286047000.4,N
1673929155.9,286047000.4,N
1673929175.8,286046999.9,N
1673929195.6,286047002.4,N
1673929215.4,286047002.3,N
1673929235.3,286047001.4,N
1673929255.1,286047002.1,N
1673929275.8,286047002.3,N
1673929295.7,286047003.5,N
1673929315.5,286047005.2,N
1673929335.4,286047005.0,N
1673929355.2,286047003.6,N
1673929375.0,286047003.0,N
1673929375.9,286047003.0,N
1673929395.8,286047004.3,N
1673929415.6,286047002.0,N
1673929435.4,286047005.4,N
1673929455.3,286047003.3,N
1673929475.1,286047004.3,N
1673929495.9,286047003.4,N
1673929515.7,286047003.5,N
1673929535.5,286047005.9,N
1673929555.4,286047004.4,N
1673929575.2,286047002.1,N
1673929595.1,286047001.0,N
1673929596.0,286047001.0,N
1673929615.8,286046998.6,N
1673929635.6,286046996.6,N
1673929655.5,286046998.7,N
1673929675.3,286047001.6,N
1673929695.2,286047002.5,N
1673929715.9,286047000.9,N
1673929735.7,286046998.7,N
1673929755.6,286046998.5,N
1673929775.4,286047000.3,N
1673929795.2,286047001.7,N
1673929815.1,286047001.0,N
1673929816.0,286047001.0,N
1673929835.8,286047002.8,N
1673929855.7,286046999.8,N
1673929875.5,286046999.8,N
1673929895.3,286046999.9,N
1673929915.2,286047001.2,N
1673929935.0,286047000.5,N
1673929935.9,286047000.5,N
1673929955.8,286047002.5,N
1673929975.6,286047004.0,N
1673929995.4,286047003.1,N
1673930015.3,286047003.8,N
1673930035.1,286047006.0,N
1673930055.8,286047002.2,N
1673930075.7,286047002.4,N
1673930095.5,286047001.4,N
1673930115.4,286047002.9,N
1673930135.2,286047003.8,N
1673930155.0,286047002.8,N
1673930155.9,286047002.8,N
1673930175.8,286047003.1,N
1673930195.6,286047004.4,N
1673930215.4,286047002.7,N
1673930235.3,286047001.7,N
1673930255.1,286047003.1,N
1673930275.9,286047003.7,N
1673930295.7,286047005.0,Y
1673930315.5,286047001.8,P
1673930335.4,286047002.8,P
1673930355.2,286047002.6,P
1673930375.1,286047002.4,Y
1673930376.0,286047002.4,P
1673930395.8,286046997.5,P
1673930415.6,286046996.0,N
1673930435.5,286046997.4,N
1673930455.3,286046996.9,N
1673930475.1,286046996.0,N
1673930495.9,286046995.3,N
1673930515.7,286046996.7,N
1673930535.6,286046999.5,N
1673930555.4,286047000.7,N
1673930575.2,286047003.9,N
1673930595.1,286047001.1,N
1673930596.0,286047001.1,N
1673930615.8,286046997.4,N
1673930635.6,286046993.4,N
1673930655.5,286046994.2,N
1673930675.3,286046993.3,N
1673930695.2,286046995.2,N
1673930715.0,286046995.8,N
1673930715.9,286046995.8,N
1673930735.7,286046993.4,N
1673930755.6,286046994.2,N
1673930775.4,286046993.9,N
1673930795.3,286046997.9,N
1673930815.1,286046996.9,N
1673930816.0,286046996.9,N
1673930835.8,286046997.2,N
1673930855.7,286046995.5,N
1673930875.5,286046996.2,N
1673930895.3,286046994.2,N
1673930915.2,286046993.3,N
1673930935.0,286046999.1,N
1673930935.9,286046999.1,N
1673930955.8,286047002.2,N
1673930975.6,286047000.4,N
1673930995.4,286046999.6,N
1673931015.3,286046997.5,N
1673931035.1,286046997.6,N
1673931055.8,286046998.9,N
1673931075.7,286046996.8,N
1673931095.5,286046995.7,N
1673931115.4,286046995.2,N
1673931135.2,286046993.6,N
1673931155.0,286046996.0,N
1673931155.9,286046996.0,N
1673931175.8,286046993.9,N
1673931195.6,286046995.6,N
1673931215.4,286046995.3,N
1673931235.3,286046996.6,N
1673931255.1,286046997.5,N
1673931275.9,286046995.9,N
1673931295.7,286046996.1,N
1673931315.5,286046994.9,N
1673931335.4,286046997.3,N
1673931355.2,286046996.7,N
1673931375.1,286046998.8,N
1673931376.0,286046998.8,N
1673931395.8,286047000.9,N
1673931415.6,286047000.6,N
1673931435.5,286047001.0,N
1673931455.3,286046999.8,N
1673931475.2,286047000.3,N
1673931495.9,286046999.2,N
1673931515.7,286046997.2,N
1673931535.6,286046997.6,N
1673931555.4,286046999.6,N
1673931575.2,286046996.8,N
1673931595.1,286046998.8,N
1673931596.0,286046998.8,N
